Location: Bruderhein
(53.8035°N, 112.9265°W)
Time: 11:44:24
(UTC+00:00)

Meteor 1-19 Rocket - Pass Details

Date: 04 December 2023
Orbit: 806 x 928 km, 81.2° (Epoch: 04 March)

Event Time Altitude Azimuth Distance (km) Brightness Sun altitude
Rises 13:24:57 0° 348° (NNW) 3,591 7.2 -17.3°
Reaches altitude 10° 13:27:38 10° 356° (N) 2,645 6.6 -17.0°
Maximum altitude 13:33:18 40° 65° (ENE) 1,343 5.6 -16.2°
Drops below altitude 10° 13:38:53 10° 134° (SE) 2,601 7.7 -15.4°
Sets 13:41:29 0° 142° (SE) 3,525 8.4 -15.0°
